This demonstration page uses our WeatherBlox Daily Observations layout. Learn more.

41.55636, -103.73856

Hourly Observations for May 31, 2019

Temp ( °F °C ) Dew Point ( °F °C ) Humidity (%) Winds ( mph kmh ) Pressure ( in mb ) Visibility ( mi km ) Precip ( " mm )
12:58 am 00:58 undefined 65 18.1 43 6.2 46 46 S 8 13 29.84 1010 10 16.0934 0 0
1:58 am 01:58 undefined 60 15.3 45 7.1 58 58 SSE 8 13 29.9 1013 10 16.0934 0 0
2:58 am 02:58 undefined 54 12.3 45 7.2 71 71 S 8 13 29.96 1014 10 16.0934 0 0
3:58 am 03:58 undefined 52 10.9 44 6.7 76 76 S 8 13 30.02 1016 10 16.0934 0 0
4:58 am 04:58 undefined 50 10.1 43 6.1 76 76 SW 10 17 30.04 1017 10 16.0934 0 0
5:58 am 05:58 undefined 49 9.4 42 5.5 77 77 SSW 9 15 30.03 1017 10 16.0934 0 0
6:58 am 06:58 undefined 47 8.6 40 4.7 77 77 SSW 10 17 30.02 1017 10 16.0934 0 0
7:58 am 07:58 undefined 48 8.7 40 4.4 75 75 SW 10 17 30.01 1016 10 16.0934 0 0
8:58 am 08:58 undefined 48 8.8 38 3.4 69 69 SSW 15 24 29.99 1016 10 16.0934 0 0
9:58 am 09:58 undefined 47 8.2 38 3.4 72 72 SW 13 20 30 1016 10 16.0934 0 0
10:58 am 10:58 undefined 48 8.7 38 3.1 68 68 SW 15 24 29.99 1016 10 16.0934 0 0
11:58 am 11:58 undefined 48 9 38 3.4 68 68 SW 14 22 30 1016 10 16.0934 0 0
12:58 pm 12:58 undefined 52 11.3 41 5.2 66 66 WSW 9 15 29.98 1015 10 16.0934 0 0
1:58 pm 13:58 undefined 59 14.9 44 6.6 58 58 WSW 10 17 29.99 1016 10 16.0934 0 0
2:58 pm 14:58 undefined 64 17.8 43 6 46 46 W 10 17 29.99 1016 10 16.0934 0 0
3:58 pm 15:58 undefined 66 18.9 40 4.6 39 39 W 13 20 29.99 1016 10 16.0934 0 0
4:58 pm 16:58 undefined 67 19.6 38 3.1 34 34 WNW 7 11 29.99 1016 10 16.0934 0 0
6:58 pm 18:58 undefined 69 20.8 37 2.9 31 31 WNW 12 19 29.97 1015 10 16.0934 0 0
7:58 pm 19:58 undefined 70 20.9 39 3.8 33 33 NW 8 13 29.96 1015 10 16.0934 0 0
8:58 pm 20:58 undefined 72 22.4 38 3.1 28 28 NNW 8 13 29.93 1014 10 16.0934 0 0
9:58 pm 21:58 undefined 72 22.3 43 6 35 35 NNE 10 17 29.94 1014 10 16.0934 0 0
10:58 pm 22:58 undefined 72 22 38 3.5 30 30 N 8 13 29.94 1014 10 16.0934 0 0
11:58 pm 23:58 undefined 71 21.7 41 5.2 34 34 N 10 17 29.93 1014 10 16.0934 0 0

Powered by AerisWeather